STARLINK-1391 (45750 NORAD) Tracking and Keplerian Element Data

This shows tracking and keplerian element data for the satellite.

Feedback or suggestion? Click here.




ElementValue
Catalog45750
NameSTARLINK-1391
Epoch Orbit182
Epoch Day191.91670139
Epoch Year2020
RAAN166.1445
Inclination53.0014
Eccentricity0.000132
Argument of Perigee83.2865
Mean Anonmoly31.8071
Mean Motion15.62752958
Decay Rate0.00028321
L11 45750U 20038W 20191.91670139 .00028321 00000-0 31405-3 0 9995
L22 45750 53.0014 166.1445 0001320 83.2865 31.8071 15.62752958 1822

Live tracking and technical data element details for STARLINK-1391 (NORAD 45750). STARLINK-1391 can be tracked NOW for your location showing map with azimuth and elevation plus other details from your city location.

Track the satellite on the map from your city or location and see movement details for azimuth, elevation, latitude, longitude, range, height, and movement on the map or in text.







IsCatalogInMostPopularTable: catalog: 45750, numindb: 7
Update: records affected: 1



GetName: 45750 STARLINK-1391

Hit Count: updated at: Fri, 10 Jul 2020 16:16:47 GMT